TimeCDT,TemperatureF,Dew PointF,Humidity,Sea Level PressureIn,VisibilityMPH,Wind Direction,Wind SpeedMPH,Gust SpeedMPH,PrecipitationIn,Events,Conditions,WindDirDegrees,DateUTC
12:13 AM,42.8,37.4,81,30.16,10.0,East,8.1,-,N/A,,Clear,80,2013-05-27 05:13:00
12:34 AM,41.0,37.4,87,30.13,10.0,NE,5.8,-,N/A,,Clear,40,2013-05-27 05:34:00
12:53 AM,39.2,35.6,87,30.14,10.0,North,6.9,-,N/A,,Clear,10,2013-05-27 05:53:00
1:13 AM,39.2,35.6,87,30.14,10.0,NE,4.6,-,N/A,,Clear,40,2013-05-27 06:13:00
1:34 AM,39.2,35.6,87,30.15,10.0,Calm,Calm,-,N/A,,Clear,0,2013-05-27 06:34:00
1:53 AM,41.0,35.6,81,30.14,10.0,North,6.9,-,N/A,,Clear,10,2013-05-27 06:53:00
2:13 AM,41.0,35.6,81,30.13,10.0,NNE,8.1,-,N/A,,Clear,20,2013-05-27 07:13:00
2:34 AM,41.0,35.6,81,30.13,10.0,NNE,9.2,-,N/A,,Clear,30,2013-05-27 07:34:00
2:53 AM,39.2,35.6,87,30.13,10.0,NNE,8.1,-,N/A,,Clear,30,2013-05-27 07:53:00
3:13 AM,39.2,35.6,87,30.13,10.0,NNE,6.9,-,N/A,,Clear,30,2013-05-27 08:13:00
3:34 AM,39.2,35.6,87,30.12,10.0,NNE,6.9,-,N/A,,Clear,30,2013-05-27 08:34:00
3:53 AM,39.2,35.6,87,30.12,10.0,NNE,6.9,-,N/A,,Clear,30,2013-05-27 08:53:00
4:13 AM,39.2,35.6,87,30.11,10.0,NNE,6.9,-,N/A,,Clear,30,2013-05-27 09:13:00
4:34 AM,39.2,35.6,87,30.11,10.0,NE,5.8,-,N/A,,Clear,40,2013-05-27 09:34:00
4:53 AM,39.2,35.6,87,30.10,10.0,NE,8.1,-,N/A,,Clear,40,2013-05-27 09:53:00
5:13 AM,39.2,35.6,87,30.10,10.0,ENE,8.1,-,N/A,,Clear,70,2013-05-27 10:13:00
5:34 AM,39.2,35.6,87,30.12,10.0,ENE,5.8,-,N/A,,Clear,60,2013-05-27 10:34:00
5:53 AM,39.2,35.6,87,30.12,10.0,NE,4.6,-,N/A,,Clear,40,2013-05-27 10:53:00
6:13 AM,39.2,35.6,87,30.13,10.0,ENE,3.5,-,N/A,,Clear,60,2013-05-27 11:13:00
6:34 AM,39.2,35.6,87,30.12,10.0,NE,6.9,-,N/A,,Scattered Clouds,50,2013-05-27 11:34:00
6:53 AM,39.2,35.6,87,30.13,10.0,NE,6.9,-,N/A,,Mostly Cloudy,50,2013-05-27 11:53:00
7:13 AM,39.2,37.4,93,30.13,10.0,ENE,9.2,-,N/A,,Overcast,60,2013-05-27 12:13:00
7:34 AM,39.2,37.4,93,30.12,10.0,ENE,9.2,-,N/A,,Overcast,60,2013-05-27 12:34:00
7:53 AM,41.0,37.4,87,30.12,10.0,ENE,10.4,-,N/A,,Overcast,60,2013-05-27 12:53:00
8:14 AM,41.0,37.4,87,30.11,10.0,ENE,12.7,-,N/A,,Overcast,60,2013-05-27 13:14:00
8:33 AM,41.0,37.4,87,30.10,10.0,ENE,13.8,-,N/A,,Overcast,70,2013-05-27 13:33:00
8:53 AM,41.0,37.4,87,30.10,10.0,ENE,15.0,-,N/A,,Overcast,60,2013-05-27 13:53:00
9:13 AM,42.8,37.4,81,30.11,10.0,East,12.7,-,N/A,,Overcast,80,2013-05-27 14:13:00
9:34 AM,42.8,37.4,81,30.09,10.0,East,11.5,-,N/A,,Overcast,80,2013-05-27 14:34:00
9:53 AM,42.8,37.4,81,30.08,10.0,East,12.7,-,N/A,,Overcast,80,2013-05-27 14:53:00
10:13 AM,42.8,37.4,81,30.09,10.0,East,11.5,-,N/A,,Overcast,80,2013-05-27 15:13:00
10:34 AM,42.8,37.4,81,30.08,10.0,East,10.4,-,N/A,,Overcast,80,2013-05-27 15:34:00
10:53 AM,42.8,37.4,81,30.07,10.0,East,10.4,-,N/A,,Overcast,80,2013-05-27 15:53:00
11:14 AM,42.8,37.4,81,30.07,10.0,ENE,11.5,-,N/A,,Overcast,70,2013-05-27 16:14:00
11:34 AM,42.8,37.4,81,30.06,10.0,East,12.7,-,N/A,,Overcast,80,2013-05-27 16:34:00
11:53 AM,42.8,37.4,81,30.05,10.0,East,13.8,-,N/A,,Overcast,80,2013-05-27 16:53:00
12:14 PM,42.8,37.4,81,30.05,10.0,ENE,11.5,-,N/A,,Overcast,70,2013-05-27 17:14:00
12:34 PM,42.8,37.4,81,30.04,10.0,ENE,9.2,-,N/A,,Overcast,70,2013-05-27 17:34:00
12:53 PM,44.6,37.4,76,30.03,10.0,ENE,10.4,-,N/A,,Mostly Cloudy,70,2013-05-27 17:53:00
1:14 PM,44.6,37.4,76,30.02,10.0,ENE,6.9,-,N/A,,Mostly Cloudy,60,2013-05-27 18:14:00
1:33 PM,44.6,37.4,76,30.01,10.0,ENE,10.4,-,N/A,,Mostly Cloudy,70,2013-05-27 18:33:00
1:54 PM,44.6,37.4,76,30.01,10.0,East,10.4,-,N/A,,Mostly Cloudy,80,2013-05-27 18:54:00
2:14 PM,44.6,37.4,76,30.01,10.0,East,10.4,-,N/A,,Overcast,80,2013-05-27 19:14:00
2:33 PM,44.6,37.4,76,30.01,10.0,ENE,15.0,-,N/A,,Overcast,70,2013-05-27 19:33:00
2:54 PM,44.6,37.4,76,30.01,10.0,East,9.2,-,N/A,,Mostly Cloudy,90,2013-05-27 19:54:00
3:13 PM,44.6,37.4,76,30.01,10.0,East,12.7,-,N/A,,Mostly Cloudy,80,2013-05-27 20:13:00
3:34 PM,46.4,35.6,66,30.00,10.0,East,9.2,-,N/A,,Overcast,90,2013-05-27 20:34:00
3:53 PM,46.4,35.6,66,30.00,10.0,East,13.8,-,N/A,,Overcast,80,2013-05-27 20:53:00
4:14 PM,48.2,37.4,66,29.99,10.0,East,11.5,-,N/A,,Mostly Cloudy,90,2013-05-27 21:14:00
4:34 PM,48.2,37.4,66,29.98,10.0,East,12.7,-,N/A,,Scattered Clouds,100,2013-05-27 21:34:00
4:53 PM,46.4,37.4,71,29.98,10.0,East,10.4,-,N/A,,Scattered Clouds,90,2013-05-27 21:53:00
5:14 PM,46.4,37.4,71,29.98,10.0,East,9.2,-,N/A,,Mostly Cloudy,90,2013-05-27 22:14:00
5:33 PM,46.4,37.4,71,29.98,10.0,East,6.9,-,N/A,,Mostly Cloudy,100,2013-05-27 22:33:00
5:53 PM,44.6,37.4,76,29.98,10.0,ESE,4.6,-,N/A,,Mostly Cloudy,110,2013-05-27 22:53:00
6:14 PM,44.6,37.4,76,29.97,10.0,Calm,Calm,-,N/A,,Mostly Cloudy,0,2013-05-27 23:14:00
6:33 PM,44.6,35.6,71,29.96,10.0,NNE,5.8,-,N/A,,Overcast,30,2013-05-27 23:33:00
6:53 PM,44.6,35.6,71,29.95,10.0,NE,6.9,-,N/A,,Overcast,50,2013-05-27 23:53:00
7:14 PM,44.6,35.6,71,29.94,10.0,ENE,5.8,-,N/A,,Overcast,70,2013-05-28 00:14:00
7:33 PM,44.6,35.6,71,29.93,10.0,NE,6.9,-,N/A,,Overcast,50,2013-05-28 00:33:00
7:53 PM,44.6,37.4,76,29.94,10.0,ENE,5.8,-,N/A,,Overcast,60,2013-05-28 00:53:00
8:14 PM,42.8,37.4,81,29.94,10.0,ENE,4.6,-,N/A,,Overcast,60,2013-05-28 01:14:00
8:33 PM,42.8,37.4,81,29.94,10.0,ENE,6.9,-,N/A,,Overcast,70,2013-05-28 01:33:00
8:53 PM,42.8,37.4,81,29.93,10.0,East,9.2,-,N/A,,Overcast,80,2013-05-28 01:53:00
9:14 PM,42.8,37.4,81,29.94,10.0,East,8.1,-,N/A,,Overcast,80,2013-05-28 02:14:00
9:33 PM,44.6,37.4,76,29.94,10.0,East,9.2,-,N/A,,Overcast,90,2013-05-28 02:33:00
9:53 PM,44.6,37.4,76,29.94,10.0,East,9.2,-,N/A,,Overcast,100,2013-05-28 02:53:00
10:14 PM,44.6,37.4,76,29.94,10.0,East,9.2,-,N/A,,Overcast,100,2013-05-28 03:14:00
10:33 PM,44.6,37.4,76,29.94,10.0,East,9.2,-,N/A,,Overcast,100,2013-05-28 03:33:00
10:53 PM,42.8,37.4,81,29.94,10.0,NNE,5.8,-,N/A,,Overcast,30,2013-05-28 03:53:00
11:13 PM,42.8,37.4,81,29.94,10.0,NNE,8.1,-,N/A,,Overcast,30,2013-05-28 04:13:00
11:33 PM,42.8,37.4,81,29.93,10.0,NNE,4.6,-,N/A,,Overcast,30,2013-05-28 04:33:00
11:54 PM,42.8,37.4,81,29.93,10.0,NNE,5.8,-,N/A,,Overcast,30,2013-05-28 04:54:00